This is the latest recevied weather packets stored in our database for station/object KE5VT. If no packets are shown the sender has not sent any weather packets the latest 1 day(s).
| Time | Temp. | Humidity | Pressure | Rain* | Wind** | Luminosity | Snow |
|---|---|---|---|---|---|---|---|
| 1778073653 | 18.33° C | 81% | 1010.9 hPa | 0 mm | 0.89 m/s, 273° | 115 W/m² | - |
| 1778073350 | 18.33° C | 81% | 1010.8 hPa | 0 mm | 0 m/s | 99 W/m² | - |
| 1778073046 | 17.78° C | 81% | 1010.8 hPa | 0 mm | 0 m/s | 92 W/m² | - |
| 1778072743 | 17.78° C | 82% | 1010.7 hPa | 0 mm | 0 m/s | 87 W/m² | - |
| 1778072441 | 17.78° C | 82% | 1010.9 hPa | 0 mm | 0.89 m/s, 139° | 81 W/m² | - |
| 1778072139 | 17.78° C | 82% | 1010.9 hPa | 0 mm | 0 m/s | 75 W/m² | - |
| 1778071836 | 17.78° C | 82% | 1011.1 hPa | 0 mm | 0 m/s | 88 W/m² | - |
| 1778071534 | 17.78° C | 82% | 1011.1 hPa | 0 mm | 0 m/s | 99 W/m² | - |
| 1778071232 | 17.22° C | 83% | 1011.1 hPa | 0 mm | 0 m/s | 89 W/m² | - |
| 1778070929 | 17.22° C | 83% | 1011.1 hPa | 0 mm | 0 m/s | 67 W/m² | - |
| 1778070627 | 16.67° C | 84% | 1011.2 hPa | 0 mm | 0 m/s | 51 W/m² | - |
| 1778070323 | 16.67° C | 85% | 1011.4 hPa | 0 mm | 0 m/s | 47 W/m² | - |
| 1778070022 | 16.67° C | 84% | 1011.3 hPa | 0 mm | 0 m/s | 42 W/m² | - |
| 1778069719 | 16.67° C | 85% | 1011.3 hPa | 0 mm | 0 m/s | 44 W/m² | - |
| 1778069415 | 16.67° C | 85% | 1011.5 hPa | 0 mm | 0 m/s | 39 W/m² | - |
| 1778069113 | 16.67° C | 85% | 1011.4 hPa | 0 mm | 0 m/s | 33 W/m² | - |
| 1778068810 | 16.67° C | 85% | 1011.2 hPa | 0 mm | 1.34 m/s, 346° | 28 W/m² | - |
| 1778068508 | 16.67° C | 85% | 1010.8 hPa | 0 mm | 0 m/s | 24 W/m² | - |
| 1778068206 | 16.67° C | 85% | 1010.7 hPa | 0 mm | 0 m/s | 19 W/m² | - |
| 1778067903 | 16.67° C | 85% | 1010.5 hPa | 0 mm | 0 m/s | 22 W/m² | - |
| 1778067602 | 16.67° C | 85% | 1010.7 hPa | 0 mm | 0 m/s | 25 W/m² | - |
| 1778067299 | 16.11° C | 85% | 1010.6 hPa | 0 mm | 0 m/s | 28 W/m² | - |
| 1778066995 | 16.11° C | 85% | 1010.8 hPa | 0 mm | 0 m/s | 24 W/m² | - |
| 1778066693 | 16.11° C | 85% | 1010.7 hPa | 0 mm | 0 m/s | 18 W/m² | - |
| 1778066390 | 16.11° C | 85% | 1010.6 hPa | 0 mm | 0 m/s | 13 W/m² | - |
* Rain latest hour (hover to see other rain measurements)
** Current wind speed in m/s (hover to see current wind gust speed)